星链-2265 (STARLINK-2265 )

导读

STARLINK-2265是美国SpaceX公司星链(Starlink)星座的一颗卫星,于2021年3月24日发射升空,属于星链一代组网卫星。星链项目计划部署数千颗低轨卫星,构建全球覆盖的卫星互联网系统,为偏远地区提供高速宽带接入服务。该卫星运行在近地轨道,单星重量约386kg,设计寿命5-7年,退役后会主动离轨再入大气层。它的加入进一步拓展了星链星座的覆盖范围与服务能力,推动了全球卫星互联网基础设施建设。

基本信息
目录编号:
48002
目录名称:
STARLINK-2265
国际标识:
2021-024AB
轨道中心:
EARTH
卫星名称:
星链-2265
卫星全名:
星链-2265 (STARLINK-2265 )
卫星状态:
已陨落 最后检测时间 2025-02-25
发射日期:
2021-03-24 UTC
国别 :
美国 (US)
星等 :
--
该卫星已列入 空间交会检测服务 Space Conjunction Data Service (SCDS) ,当前飞行风险评估等级: 无高风险
轨道信息
数据来源 国际轨道数据
星历时间: 2025-02-25T00:39:17+0800
轨道信息已过期563天
半长轴: 6540.001km
偏心率: 0.0002919
轨道倾角: 53.025°
近地点辐角 330.680°
升交点赤经 117.645°
平近点角 122.790°
近地点: 159.956km
远地点: 163.776km
周期: 87.726分钟
每日圈数: 16.414818
详细信息
固有亮度:
5
最大亮度:
2.5
卫星平台:
Starlink V1.0
覆盖范围:
全球
运营商:
太空探索技术公司
运营商所在国:
美国
制造商(研发单位):
太空探索技术公司
制造商所在国:
美国
使用方式:
暂无
卫星简介
星链(Starlink)计划是由太空探索技术公司(SpaceX)提出的一个巨型低轨卫星互联网星座项目,计划在2019年至2024年间在太空搭建由约1.2万颗卫星组成的“星链”网络,其中1584颗将部署在地球上空550千米处的近地轨道,并从2020年开始工作。该卫星仍在工作。
与全量物体交会距离演化趋势
与全量物体交会风险概率演化趋势